Wind_Speed
25 24 23 21 21 20 19 19 19 19 20 21 22 24 24 25 26 28 29 30 32 33 34 34 35 36 37 37 37 38 39 39 40 41 41 42 42 42 42 41 41 41 41
26 25 24 22 22 21 21 20 20 20 21 22 23 25 25 26 27 29 30 31 33 33 34 35 36 37 37 38 39 39 40 40 41 42 43 44 44 44 44 43 43 43 42
27 26 24 24 23 22 22 22 21 21 22 23 24 25 26 27 28 30 31 32 33 34 34 35 36 37 38 39 40 40 41 42 43 44 45 45 45 45 45 45 45 44 44
28 27 25 25 24 23 23 23 22 23 23 24 25 26 27 28 29 31 32 33 34 34 35 36 37 38 39 40 41 42 42 43 44 45 46 46 47 46 46 46 46 46 46
30 28 27 26 25 24 24 23 23 24 24 25 26 27 28 29 30 31 33 33 34 35 36 37 38 39 40 41 42 43 44 45 46 47 47 48 48 48 48 48 48 48 48
31 30 28 27 26 25 25 25 25 25 25 26 27 28 29 29 31 32 33 34 34 35 37 38 39 40 41 42 43 44 45 46 47 48 49 49 49 50 50 50 50 50 50
33 31 29 28 27 26 26 26 26 26 26 27 28 29 29 30 31 32 33 34 35 36 38 39 40 42 43 44 44 45 46 48 49 50 50 50 51 51 51 51 52 52 53
34 32 30 29 28 28 27 27 27 27 27 27 28 29 30 31 32 33 34 35 36 37 39 40 42 43 44 45 46 47 48 49 50 50 51 51 52 52 53 53 54 55 56
34 33 32 30 29 29 28 28 28 28 28 28 29 30 30 31 32 33 34 36 37 38 39 41 43 44 45 46 47 48 49 50 51 52 53 53 54 54 55 56 57 58 59
35 34 33 32 31 30 29 29 29 29 29 29 30 30 32 33 33 34 35 36 38 39 40 42 43 45 46 47 48 49 50 51 52 53 54 54 55 56 57 58 60 61 62
35 34 33 32 32 30 30 30 30 30 30 30 31 31 32 33 34 35 35 37 38 40 41 42 44 45 47 48 49 51 51 52 53 54 55 56 57 58 60 61 63 64 64
35 34 33 33 32 31 31 31 31 31 31 31 32 33 33 34 34 35 36 37 39 41 42 43 44 46 48 49 50 51 52 53 54 55 57 58 59 60 62 63 64 64 63
35 35 34 33 33 32 32 32 31 31 32 32 33 33 34 35 36 36 37 38 39 41 42 44 45 47 48 50 51 51 53 54 55 56 58 59 61 62 63 64 65 64 61
36 35 35 34 33 33 33 32 32 32 33 33 34 34 35 36 36 38 39 40 41 41 43 44 45 47 48 50 51 52 53 55 56 58 59 60 62 64 64 65 64 62 60
37 36 35 35 34 34 33 33 33 34 34 34 34 35 35 36 37 39 40 41 42 43 43 44 46 48 49 51 52 53 54 56 57 59 60 62 64 64 65 65 63 61 60
38 37 36 36 35 35 34 34 35 35 34 35 35 35 35 37 38 39 41 42 43 44 44 45 47 48 50 51 53 54 56 57 58 60 62 63 65 65 65 64 61 60 59
38 37 37 37 36 36 35 35 36 36 36 36 36 35 36 37 39 40 41 42 43 44 45 46 47 48 50 52 54 55 57 58 59 61 63 64 65 65 64 61 59 58 57
39 38 38 37 37 36 36 36 36 36 36 36 36 36 37 38 39 40 41 42 43 44 45 46 47 49 51 52 54 56 57 59 60 62 63 65 65 64 62 60 59 58 56
40 39 38 38 38 37 37 36 36 36 37 36 36 36 37 39 39 40 41 42 43 43 45 46 47 49 51 53 55 57 58 60 61 63 65 65 64 62 60 58 57 57 55
40 40 39 39 39 38 38 37 37 36 36 36 36 37 38 38 39 39 41 41 42 44 45 46 47 49 51 53 55 57 58 60 61 63 65 64 62 60 59 57 57 55 53
41 40 40 39 39 38 37 37 36 36 36 36 36 37 37 38 38 39 40 41 42 43 45 46 48 50 52 54 56 57 58 59 61 63 63 62 60 58 57 56 55 53 52
42 41 40 40 39 38 37 36 35 35 36 36 36 36 37 37 38 38 39 41 42 43 44 46 48 50 52 54 56 57 58 59 60 61 61 60 59 57 57 55 54 52 50
43 41 41 40 39 38 37 36 36 36 36 35 35 36 36 37 37 38 40 41 42 42 44 46 48 50 52 54 56 57 58 59 59 59 59 59 58 57 56 55 53 50 48
43 42 41 40 39 38 37 36 36 36 36 35 35 36 36 36 37 38 39 40 40 41 44 46 48 50 52 53 55 56 58 58 59 59 59 58 57 57 56 53 51 48 46
44 42 40 40 39 38 37 36 36 36 35 35 35 35 35 35 36 37 38 38 40 42 44 46 48 50 51 53 55 56 57 57 58 58 58 58 56 55 54 52 49 47 45
43 42 40 39 38 37 36 36 35 35 35 34 35 35 34 34 35 36 37 38 39 42 44 46 48 49 51 53 55 56 56 56 57 57 57 57 55 53 50 50 48 46 45
Wind_Direction
239 242 247 252 258 264 270 276 282 286 289 293 298 303 307 310 312 314 316 318 320 321 322 322 323 323 324 324 323 322 322 321 321 320 319 318 317 316 315 314 312 311 309
239 243 247 253 258 264 269 274 281 286 290 293 297 302 305 308 310 313 315 316 318 320 321 322 322 322 323 323 322 321 321 320 320 320 319 318 317 316 314 313 311 310 308
239 243 247 253 258 264 269 274 280 285 290 293 297 301 304 306 309 311 313 315 317 318 320 321 321 321 322 321 321 321 320 319 319 319 318 317 316 315 314 312 311 309 308
239 243 247 252 258 264 269 273 279 284 289 292 296 300 302 305 308 310 312 314 315 317 319 319 320 321 321 320 320 319 319 318 318 318 318 317 315 315 313 311 310 308 307
239 243 247 252 258 264 268 272 278 283 288 291 295 298 301 304 307 309 311 312 314 316 317 318 319 320 320 319 319 319 318 318 318 318 317 316 315 314 313 311 310 307 306
239 243 248 252 258 263 267 271 277 282 286 290 294 297 300 303 306 308 309 311 312 315 316 317 318 319 319 318 318 318 318 318 318 318 317 317 316 314 313 311 310 308 307
239 244 247 252 257 262 265 270 276 281 286 289 292 296 298 302 304 307 308 310 311 314 315 316 317 317 317 317 317 317 317 317 317 317 317 316 316 315 313 312 311 309 308
239 243 247 251 257 261 265 269 275 280 284 288 291 294 298 301 303 306 307 309 311 312 314 315 316 316 317 317 317 317 317 317 317 317 317 316 316 315 314 313 311 310 308
239 243 247 251 256 260 264 269 274 278 283 287 291 293 297 300 302 304 306 308 310 311 312 314 315 316 316 316 317 317 317 317 317 317 317 317 316 316 314 313 312 311 309
240 243 247 251 255 258 263 268 274 278 282 286 289 292 296 299 301 303 305 307 309 310 312 313 314 315 315 316 317 317 317 317 317 317 317 317 316 316 315 314 313 312 311
240 244 247 250 254 258 262 268 273 277 281 284 288 292 296 298 300 303 305 307 309 310 311 313 314 315 315 316 317 317 317 317 317 317 317 317 316 316 316 315 314 313 312
241 244 246 250 253 258 262 266 271 276 279 282 287 291 295 297 299 302 304 306 308 309 311 313 313 314 315 316 317 317 317 317 318 318 318 317 317 317 317 316 316 315 313
241 244 247 250 254 258 261 265 270 274 278 282 286 290 293 296 299 301 303 305 307 309 310 312 313 314 315 315 317 317 317 318 318 318 318 318 318 318 318 317 317 316 314
241 244 246 249 253 256 260 265 269 273 277 282 286 290 293 295 298 301 303 305 307 309 310 311 313 314 315 316 317 318 318 318 318 318 319 319 319 319 318 318 318 316 315
240 243 246 249 252 256 260 264 268 272 277 282 285 289 291 294 297 300 302 305 307 309 310 312 313 314 315 316 317 318 318 319 319 319 319 319 320 320 319 319 318 317 316
240 243 246 249 253 256 260 263 267 272 277 281 284 288 291 293 297 300 302 304 307 309 311 312 314 315 316 317 318 319 319 319 320 320 320 320 321 320 320 320 319 319 318
239 242 245 249 252 256 259 263 268 272 276 280 283 287 290 293 296 299 301 304 307 309 311 313 314 315 316 318 319 319 320 320 320 321 321 321 322 321 321 321 321 320 319
239 242 244 248 252 256 260 264 268 272 276 279 282 285 288 292 295 298 301 304 307 309 311 313 315 316 317 319 319 320 320 321 321 321 322 322 322 322 322 322 321 321 320
239 241 243 248 252 256 259 263 268 272 276 279 282 285 288 292 294 297 301 304 306 309 312 314 315 317 318 319 320 321 321 322 322 323 323 323 323 323 323 323 322 322 321
239 241 244 248 252 256 259 262 267 271 275 278 281 285 288 291 294 297 301 304 307 310 312 314 316 317 318 320 321 321 322 322 323 323 324 325 325 325 324 324 324 323 322
239 242 245 249 252 255 258 263 266 270 273 277 281 284 287 291 294 298 302 305 308 310 312 314 316 318 319 321 321 322 322 323 324 324 325 325 326 326 325 325 325 324 323
238 241 245 248 252 255 258 261 265 268 273 277 280 283 287 291 294 298 301 305 308 310 313 315 317 319 320 321 322 323 324 324 324 325 326 326 327 327 327 326 326 325 324
239 242 245 249 251 254 257 260 264 268 272 276 280 283 287 291 294 298 302 305 307 311 314 315 318 320 321 322 323 324 325 325 326 327 328 328 328 328 327 327 327 326 326
239 242 245 248 251 254 257 260 264 269 272 276 279 283 287 291 295 298 302 305 308 312 314 317 319 320 321 323 324 325 326 326 327 329 329 329 329 328 328 329 329 328 328
238 242 246 248 250 254 257 261 264 268 272 275 278 283 287 291 295 298 302 306 309 312 315 317 319 321 323 324 325 326 327 328 329 330 330 330 330 330 330 330 330 329 329
240 242 245 248 251 254 258 262 264 268 271 275 279 283 287 292 295 300 304 307 309 313 316 319 320 322 324 325 326 327 328 328 329 330 331 331 331 331 331 330 330 330 330
Height
5830 5832 5834 5835 5837 5837 5838 5838 5838 5838 5837 5837 5835 5834 5832 5830 5827 5825 5822 5819 5816 5812 5808 5804 5800 5796 5792 5788 5783 5779 5774 5770 5765 5760 5755 5750 5745 5740 5736 5731 5726 5722 5718
5825 5828 5830 5831 5832 5833 5834 5834 5834 5833 5833 5832 5831 5829 5827 5825 5823 5820 5817 5814 5811 5807 5803 5799 5795 5791 5786 5782 5777 5773 5768 5763 5758 5753 5748 5743 5738 5732 5727 5723 5718 5713 5709
5820 5823 5824 5826 5827 5828 5829 5829 5829 5829 5828 5827 5826 5824 5822 5820 5818 5815 5812 5809 5806 5802 5798 5794 5789 5785 5781 5776 5771 5767 5762 5756 5751 5746 5740 5735 5730 5724 5719 5714 5709 5704 5699
5815 5817 5819 5821 5822 5823 5824 5824 5824 5824 5823 5822 5821 5819 5817 5815 5812 5810 5807 5804 5800 5796 5792 5788 5784 5779 5775 5770 5765 5760 5755 5749 5744 5738 5733 5727 5721 5716 5710 5705 5699 5694 5689
5809 5812 5814 5816 5817 5818 5819 5819 5819 5819 5818 5817 5816 5814 5812 5809 5807 5804 5801 5798 5794 5791 5787 5782 5778 5773 5768 5763 5758 5753 5748 5742 5736 5730 5724 5718 5712 5707 5701 5695 5689 5684 5679
5803 5806 5808 5810 5812 5813 5813 5814 5814 5814 5813 5812 5810 5808 5806 5804 5801 5799 5795 5792 5789 5785 5781 5776 5772 5767 5762 5757 5751 5746 5740 5734 5728 5722 5716 5709 5703 5697 5690 5684 5678 5672 5667
5797 5800 5802 5804 5806 5807 5807 5808 5808 5808 5807 5806 5804 5803 5801 5798 5796 5793 5789 5786 5783 5779 5774 5770 5765 5760 5755 5749 5744 5738 5732 5726 5720 5713 5707 5700 5693 5687 5680 5674 5667 5661 5655
5790 5793 5796 5798 5800 5801 5802 5802 5802 5802 5801 5800 5799 5797 5795 5793 5790 5787 5783 5780 5776 5772 5768 5763 5758 5753 5748 5742 5736 5730 5724 5718 5711 5704 5697 5690 5683 5676 5669 5662 5655 5649 5642
5783 5786 5789 5791 5793 5795 5796 5796 5796 5796 5795 5794 5793 5791 5789 5787 5784 5781 5777 5774 5770 5766 5761 5756 5751 5746 5740 5735 5729 5722 5716 5709 5702 5695 5688 5681 5673 5666 5658 5651 5643 5635 5628
5777 5780 5782 5785 5786 5788 5789 5790 5790 5789 5789 5788 5786 5785 5783 5780 5778 5775 5771 5767 5763 5759 5754 5749 5744 5738 5732 5727 5720 5714 5707 5700 5693 5686 5678 5670 5663 5655 5646 5638 5630 5621 5612
5769 5772 5775 5778 5780 5781 5782 5783 5783 5783 5782 5781 5780 5778 5776 5773 5771 5768 5765 5760 5756 5751 5747 5742 5736 5730 5724 5718 5712 5705 5698 5691 5683 5676 5668 5660 5652 5643 5634 5625 5616 5606 5597
5762 5765 5768 5770 5772 5774 5775 5776 5776 5776 5775 5774 5773 5771 5769 5767 5764 5761 5758 5754 5749 5744 5739 5734 5728 5722 5716 5710 5703 5696 5689 5681 5674 5666 5657 5649 5640 5631 5622 5612 5602 5592 5582
5755 5758 5761 5763 5765 5767 5768 5768 5769 5769 5768 5767 5766 5764 5762 5759 5757 5753 5750 5746 5742 5737 5732 5726 5720 5714 5708 5701 5694 5687 5679 5672 5663 5655 5646 5638 5628 5619 5609 5598 5588 5578 5568
5747 5750 5753 5755 5757 5759 5760 5761 5761 5761 5761 5760 5758 5757 5755 5752 5749 5746 5743 5739 5735 5730 5724 5719 5713 5706 5699 5692 5685 5678 5670 5662 5653 5644 5635 5626 5616 5606 5596 5585 5575 5564 5554
5739 5742 5745 5748 5750 5751 5752 5753 5754 5754 5753 5752 5751 5750 5747 5745 5742 5738 5735 5730 5727 5722 5717 5711 5704 5698 5691 5684 5676 5668 5660 5652 5643 5633 5624 5614 5604 5594 5583 5572 5561 5551 5541
5732 5735 5738 5740 5742 5744 5745 5746 5746 5746 5746 5745 5744 5742 5740 5737 5734 5731 5727 5723 5718 5713 5708 5702 5696 5689 5682 5674 5667 5659 5650 5641 5632 5622 5613 5602 5592 5581 5570 5559 5548 5538 5528
5724 5727 5730 5732 5734 5736 5737 5738 5739 5739 5738 5738 5736 5735 5732 5730 5727 5723 5719 5715 5710 5705 5700 5694 5687 5680 5673 5665 5657 5649 5640 5631 5621 5611 5601 5591 5579 5568 5557 5546 5536 5526 5516
5716 5719 5722 5725 5727 5728 5729 5730 5731 5731 5731 5730 5729 5727 5725 5722 5719 5715 5711 5707 5702 5697 5691 5686 5679 5672 5664 5656 5648 5639 5630 5620 5611 5600 5590 5579 5567 5556 5545 5534 5524 5514 5504
5708 5711 5714 5717 5719 5720 5722 5722 5723 5723 5723 5722 5721 5719 5717 5714 5711 5707 5703 5699 5694 5689 5683 5677 5670 5663 5656 5647 5638 5629 5619 5609 5599 5588 5578 5567 5555 5544 5533 5523 5513 5503 5493
5699 5703 5706 5708 5710 5712 5713 5714 5715 5715 5715 5714 5713 5711 5709 5706 5703 5700 5696 5691 5686 5681 5675 5669 5662 5655 5647 5638 5629 5620 5610 5599 5589 5577 5566 5555 5544 5533 5523 5512 5503 5493 5483
5691 5694 5697 5700 5702 5704 5705 5706 5707 5707 5707 5706 5705 5703 5701 5698 5695 5692 5688 5683 5678 5673 5667 5660 5654 5646 5638 5629 5621 5611 5601 5591 5580 5568 5556 5545 5535 5524 5513 5502 5492 5482 5473
5682 5685 5688 5691 5693 5696 5697 5698 5698 5699 5699 5698 5697 5695 5693 5690 5687 5684 5680 5675 5670 5665 5659 5653 5646 5638 5630 5621 5612 5601 5591 5583 5573 5562 5548 5535 5525 5514 5503 5493 5483 5473 5464
5673 5676 5680 5682 5685 5687 5688 5689 5690 5691 5691 5690 5689 5687 5685 5683 5679 5676 5672 5667 5662 5656 5651 5645 5637 5629 5621 5613 5604 5593 5582 5570 5560 5550 5538 5526 5515 5504 5494 5483 5474 5464 5455
5664 5668 5671 5674 5676 5678 5679 5681 5682 5682 5682 5682 5681 5679 5677 5674 5671 5668 5664 5659 5654 5649 5643 5637 5629 5621 5612 5603 5594 5583 5573 5562 5550 5539 5528 5518 5506 5495 5484 5474 5465 5456 5448
5655 5658 5662 5665 5667 5669 5671 5672 5673 5674 5674 5674 5673 5671 5669 5667 5664 5660 5656 5652 5646 5641 5634 5627 5620 5612 5603 5594 5585 5575 5564 5554 5543 5531 5520 5509 5498 5487 5476 5466 5457 5449 5440
5645 5649 5653 5656 5659 5661 5663 5664 5665 5666 5666 5666 5665 5663 5662 5659 5656 5652 5648 5644 5638 5633 5626 5619 5612 5604 5595 5586 5576 5567 5556 5545 5535 5524 5513 5501 5490 5480 5471 5460 5451 5442 5433